Location: Del Amo
(33.8464°N, 118.2104°W)
Time: 15:35:58
(UTC+00:00)

Tiros 1 despin weight - Pass Details

Date: 18 September 2024
Orbit: 573 x 615 km, 48.2° (Epoch: 04 October)

Event Time Altitude Azimuth Distance (km) Brightness Sun altitude
Exits shadow 12:17:12 - 321° (NW) 2,109 ? -17.5°
Reaches altitude 10° 12:17:53 10° 328° (NNW) 1,978 ? -17.4°
Maximum altitude 12:20:02 13° 356° (N) 1,780 ? -17.0°
Drops below altitude 10° 12:22:13 10° 25° (NNE) 1,982 ? -16.5°
Sets 12:25:45 0° 53° (NE) 2,888 ? -15.8°
